TimeCST,TemperatureF,Dew PointF,Humidity,Sea Level PressureIn,VisibilityMPH,Wind Direction,Wind SpeedMPH,Gust SpeedMPH,PrecipitationIn,Events,Conditions,WindDirDegrees,DateUTC
12:15 AM,39.2,23.0,52,30.12,10.0,East,5.8,-,N/A,,Clear,90,2014-02-18 06:15:00
12:35 AM,35.6,21.2,56,30.11,10.0,East,5.8,-,N/A,,Clear,80,2014-02-18 06:35:00
12:55 AM,35.6,21.2,56,30.11,10.0,East,4.6,-,N/A,,Clear,90,2014-02-18 06:55:00
1:15 AM,37.4,21.2,52,30.11,10.0,East,4.6,-,N/A,,Clear,80,2014-02-18 07:15:00
1:35 AM,30.2,19.4,64,30.10,10.0,East,6.9,-,N/A,,Clear,80,2014-02-18 07:35:00
1:55 AM,33.8,21.2,60,30.10,10.0,ENE,4.6,-,N/A,,Clear,60,2014-02-18 07:55:00
2:15 AM,35.6,21.2,56,30.10,10.0,East,4.6,-,N/A,,Clear,90,2014-02-18 08:15:00
2:35 AM,37.4,21.2,52,30.08,10.0,ENE,4.6,-,N/A,,Clear,60,2014-02-18 08:35:00
2:55 AM,33.8,21.2,60,30.08,10.0,ENE,3.5,-,N/A,,Clear,60,2014-02-18 08:55:00
3:15 AM,33.8,21.2,60,30.07,10.0,NE,3.5,-,N/A,,Clear,50,2014-02-18 09:15:00
3:35 AM,33.8,21.2,60,30.05,10.0,NNE,4.6,-,N/A,,Clear,30,2014-02-18 09:35:00
3:55 AM,32.0,21.2,64,30.05,10.0,NE,4.6,-,N/A,,Clear,50,2014-02-18 09:55:00
4:15 AM,33.8,21.2,60,30.05,10.0,ENE,4.6,-,N/A,,Clear,60,2014-02-18 10:15:00
4:35 AM,33.8,21.2,60,30.04,10.0,NNE,6.9,-,N/A,,Clear,30,2014-02-18 10:35:00
4:55 AM,32.0,21.2,64,30.03,10.0,North,6.9,-,N/A,,Clear,10,2014-02-18 10:55:00
5:15 AM,33.8,21.2,60,30.03,10.0,North,6.9,-,N/A,,Clear,10,2014-02-18 11:15:00
5:35 AM,33.8,21.2,60,30.03,10.0,NNE,6.9,-,N/A,,Clear,30,2014-02-18 11:35:00
5:55 AM,33.8,21.2,60,30.03,10.0,NE,6.9,-,N/A,,Clear,40,2014-02-18 11:55:00
6:15 AM,30.2,19.4,64,30.03,10.0,ENE,8.1,-,N/A,,Clear,60,2014-02-18 12:15:00
6:35 AM,32.0,19.4,60,30.02,10.0,East,8.1,-,N/A,,Clear,80,2014-02-18 12:35:00
6:55 AM,32.0,19.4,60,30.02,10.0,East,8.1,-,N/A,,Clear,80,2014-02-18 12:55:00
7:15 AM,30.2,19.4,64,30.02,10.0,East,8.1,-,N/A,,Clear,100,2014-02-18 13:15:00
7:35 AM,32.0,21.2,64,30.02,10.0,East,8.1,-,N/A,,Clear,90,2014-02-18 13:35:00
7:55 AM,39.2,24.8,56,30.03,10.0,ESE,11.5,-,N/A,,Clear,110,2014-02-18 13:55:00
8:15 AM,46.4,26.6,46,30.02,10.0,East,8.1,-,N/A,,Clear,100,2014-02-18 14:15:00
8:35 AM,46.4,26.6,46,30.02,10.0,East,9.2,-,N/A,,Clear,100,2014-02-18 14:35:00
8:55 AM,48.2,26.6,43,30.02,10.0,ESE,8.1,-,N/A,,Clear,110,2014-02-18 14:55:00
9:15 AM,50.0,28.4,43,30.02,10.0,ESE,6.9,-,N/A,,Clear,110,2014-02-18 15:15:00
9:35 AM,53.6,28.4,38,30.02,10.0,ESE,11.5,-,N/A,,Clear,110,2014-02-18 15:35:00
9:55 AM,57.2,28.4,33,30.01,10.0,ESE,13.8,18.4,N/A,,Clear,110,2014-02-18 15:55:00
10:15 AM,57.2,28.4,33,30.00,10.0,ESE,15.0,19.6,N/A,,Clear,110,2014-02-18 16:15:00
10:35 AM,57.2,28.4,33,29.99,10.0,East,13.8,19.6,N/A,,Clear,100,2014-02-18 16:35:00
10:55 AM,57.2,26.6,31,29.99,10.0,ESE,18.4,24.2,N/A,,Clear,110,2014-02-18 16:55:00
11:15 AM,60.8,28.4,29,29.98,10.0,ESE,13.8,19.6,N/A,,Clear,120,2014-02-18 17:15:00
11:35 AM,62.6,28.4,27,29.97,10.0,ESE,19.6,27.6,N/A,,Clear,110,2014-02-18 17:35:00
11:55 AM,62.6,28.4,27,29.97,10.0,ESE,18.4,26.5,N/A,,Clear,120,2014-02-18 17:55:00
12:15 PM,62.6,28.4,27,29.95,10.0,ESE,21.9,25.3,N/A,,Clear,110,2014-02-18 18:15:00
12:35 PM,66.2,30.2,26,29.93,10.0,SE,18.4,25.3,N/A,,Clear,140,2014-02-18 18:35:00
12:55 PM,64.4,28.4,26,29.92,10.0,SE,24.2,27.6,N/A,,Clear,130,2014-02-18 18:55:00
1:15 PM,64.4,28.4,26,29.91,10.0,SE,20.7,31.1,N/A,,Clear,130,2014-02-18 19:15:00
1:35 PM,64.4,28.4,26,29.90,10.0,ESE,20.7,25.3,N/A,,Clear,120,2014-02-18 19:35:00
1:55 PM,64.4,28.4,26,29.88,10.0,ESE,20.7,27.6,N/A,,Clear,120,2014-02-18 19:55:00
2:15 PM,66.2,30.2,26,29.85,10.0,ESE,23.0,28.8,N/A,,Clear,110,2014-02-18 20:15:00
2:35 PM,68.0,30.2,24,29.83,10.0,ESE,20.7,29.9,N/A,,Clear,110,2014-02-18 20:35:00
2:55 PM,68.0,30.2,24,29.82,10.0,ESE,20.7,31.1,N/A,,Clear,110,2014-02-18 20:55:00
3:15 PM,68.0,32.0,26,29.83,10.0,SE,18.4,28.8,N/A,,Clear,130,2014-02-18 21:15:00
3:35 PM,68.0,32.0,26,29.83,10.0,ESE,17.3,25.3,N/A,,Clear,120,2014-02-18 21:35:00
3:55 PM,69.8,33.8,27,29.82,10.0,ESE,17.3,-,N/A,,Clear,120,2014-02-18 21:55:00
4:15 PM,69.8,33.8,27,29.81,10.0,SE,17.3,-,N/A,,Clear,130,2014-02-18 22:15:00
4:35 PM,69.8,33.8,27,29.81,10.0,SE,16.1,-,N/A,,Clear,140,2014-02-18 22:35:00
4:55 PM,68.0,33.8,28,29.83,10.0,SSE,15.0,20.7,N/A,,Clear,150,2014-02-18 22:55:00
5:15 PM,68.0,33.8,28,29.83,10.0,SSE,15.0,19.6,N/A,,Clear,160,2014-02-18 23:15:00
5:35 PM,66.2,33.8,30,29.83,10.0,SSE,13.8,-,N/A,,Clear,160,2014-02-18 23:35:00
5:55 PM,64.4,33.8,32,29.85,10.0,South,9.2,-,N/A,,Clear,170,2014-02-18 23:55:00
6:15 PM,60.8,33.8,36,29.86,10.0,South,8.1,-,N/A,,Clear,170,2014-02-19 00:15:00
6:35 PM,60.8,33.8,36,29.86,10.0,SSE,5.8,-,N/A,,Clear,160,2014-02-19 00:35:00
6:55 PM,60.8,33.8,36,29.86,10.0,SSE,3.5,-,N/A,,Clear,160,2014-02-19 00:55:00
7:15 PM,59.0,33.8,39,29.87,10.0,Calm,Calm,-,N/A,,Clear,0,2014-02-19 01:15:00
7:35 PM,57.2,33.8,41,29.88,10.0,South,3.5,-,N/A,,Clear,170,2014-02-19 01:35:00
7:55 PM,57.2,33.8,41,29.89,10.0,Calm,Calm,-,N/A,,Clear,0,2014-02-19 01:55:00
8:15 PM,57.2,33.8,41,29.89,10.0,Calm,Calm,-,N/A,,Clear,0,2014-02-19 02:15:00
8:35 PM,57.2,33.8,41,29.90,10.0,Calm,Calm,-,N/A,,Clear,0,2014-02-19 02:35:00
8:55 PM,57.2,35.6,44,29.90,10.0,East,3.5,-,N/A,,Clear,100,2014-02-19 02:55:00
9:15 PM,53.6,33.8,47,29.91,10.0,Calm,Calm,-,N/A,,Clear,0,2014-02-19 03:15:00
9:35 PM,53.6,33.8,47,29.92,10.0,Calm,Calm,-,N/A,,Clear,0,2014-02-19 03:35:00
9:55 PM,51.8,33.8,50,29.92,10.0,ESE,4.6,-,N/A,,Clear,110,2014-02-19 03:55:00
10:15 PM,53.6,33.8,47,29.93,10.0,ESE,3.5,-,N/A,,Clear,120,2014-02-19 04:15:00
10:35 PM,53.6,35.6,51,29.93,10.0,Calm,Calm,-,N/A,,Clear,0,2014-02-19 04:35:00
10:55 PM,51.8,35.6,54,29.94,10.0,Calm,Calm,-,N/A,,Clear,0,2014-02-19 04:55:00
11:15 PM,50.0,35.6,58,29.94,10.0,Calm,Calm,-,N/A,,Clear,0,2014-02-19 05:15:00
11:35 PM,51.8,35.6,54,29.94,10.0,Calm,Calm,-,N/A,,Clear,0,2014-02-19 05:35:00
11:55 PM,51.8,35.6,54,29.94,10.0,Calm,Calm,-,N/A,,Clear,0,2014-02-19 05:55:00